TimePDT,TemperatureF,Dew PointF,Humidity,Sea Level PressureIn,VisibilityMPH,Wind Direction,Wind SpeedMPH,Gust SpeedMPH,PrecipitationIn,Events,Conditions,WindDirDegrees,DateUTC
12:00 AM,37.4,33.8,87,30.27,9.0,East,4.6,-,N/A,,Overcast,90,2013-03-19 07:00:00
1:00 AM,37.4,33.8,87,30.28,9.0,East,4.6,-,N/A,,Overcast,90,2013-03-19 08:00:00
2:00 AM,37.4,32.0,81,30.27,9.0,ESE,3.5,-,N/A,,Mostly Cloudy,120,2013-03-19 09:00:00
3:00 AM,37.4,30.2,75,30.28,9.0,East,5.8,-,N/A,,Overcast,90,2013-03-19 10:00:00
4:00 AM,33.8,32.0,93,30.27,9.0,ESE,10.4,-,N/A,,Clear,110,2013-03-19 11:00:00
5:00 AM,33,31,89,,,Calm,Calm,,,,,,2013-03-19 12:00:00
5:00 AM,33.8,30.2,87,30.26,9.0,East,9.2,-,N/A,,Clear,90,2013-03-19 12:00:00
5:09 AM,32.0,30.2,93,30.26,4.0,ESE,8.1,-,N/A,,Clear,110,2013-03-19 12:09:00
5:23 AM,32.0,30.2,93,30.26,7.0,ESE,10.4,-,N/A,,Partly Cloudy,110,2013-03-19 12:23:00
5:25 AM,32.0,30.2,93,30.25,4.0,ESE,10.4,-,N/A,,Partly Cloudy,110,2013-03-19 12:25:00
5:28 AM,32.0,30.2,93,30.25,2.5,ESE,10.4,-,N/A,,Partly Cloudy,110,2013-03-19 12:28:00
5:35 AM,32.0,32.0,100,30.25,3.0,East,10.4,-,N/A,,Partly Cloudy,100,2013-03-19 12:35:00
5:37 AM,32.0,32.0,100,30.25,6.0,East,10.4,-,N/A,,Clear,100,2013-03-19 12:37:00
6:00 AM,32.0,32.0,100,30.25,9.0,East,11.5,-,N/A,,Clear,100,2013-03-19 13:00:00
7:00 AM,32.0,32.0,100,30.24,9.0,East,10.4,-,N/A,,Scattered Clouds,100,2013-03-19 14:00:00
7:02 AM,32.0,32.0,100,30.23,9.0,ESE,12.7,-,N/A,,Scattered Clouds,110,2013-03-19 14:02:00
8:00 AM,33,31,90,,,East,12.7,,,,,100,2013-03-19 15:00:00
8:00 AM,32.0,32.0,100,30.21,9.0,East,13.8,-,N/A,,Clear,100,2013-03-19 15:00:00
9:00 AM,33.8,32.0,93,30.20,9.0,ESE,12.7,-,N/A,,Clear,110,2013-03-19 16:00:00
10:00 AM,37.4,32.0,81,30.19,9.0,East,11.5,-,N/A,,Clear,100,2013-03-19 17:00:00
11:00 AM,41,31,57,,,Calm,Calm,,,,,,2013-03-19 18:00:00
11:00 AM,41.0,30.2,65,30.15,9.0,ESE,16.1,-,N/A,,Clear,110,2013-03-19 18:00:00
12:00 PM,42.8,30.2,61,30.11,9.0,East,12.7,18.4,N/A,,Clear,100,2013-03-19 19:00:00
1:00 PM,46.4,28.4,50,30.07,9.0,East,12.7,-,N/A,,Clear,90,2013-03-19 20:00:00
2:00 PM,46,30,41,,,East,10.4,,,,,80,2013-03-19 21:00:00
2:00 PM,46.4,30.2,53,30.02,9.0,East,12.7,-,N/A,,Clear,90,2013-03-19 21:00:00
3:00 PM,48.2,33.8,58,29.96,9.0,East,10.4,17.3,N/A,,Clear,100,2013-03-19 22:00:00
4:00 PM,48.2,33.8,58,29.93,9.0,East,8.1,-,N/A,,Scattered Clouds,100,2013-03-19 23:00:00
5:00 PM,47,36,56,,,Calm,Calm,,,,,,2013-03-20 00:00:00
5:00 PM,48.2,35.6,62,29.89,9.0,East,8.1,-,N/A,,Overcast,100,2013-03-20 00:00:00
6:00 PM,46.4,37.4,71,29.86,9.0,East,3.5,-,N/A,,Overcast,80,2013-03-20 01:00:00
6:57 PM,44.6,37.4,76,29.83,9.0,ENE,3.5,-,N/A,Rain,Light Rain,60,2013-03-20 01:57:00
7:00 PM,44.6,37.4,76,29.83,9.0,ENE,3.5,-,N/A,Rain,Light Rain,60,2013-03-20 02:00:00
8:00 PM,42,39,86,,,North,5.8,,,,,0,2013-03-20 03:00:00
8:00 PM,42.8,39.2,87,29.81,9.0,ESE,8.1,-,N/A,Rain,Light Rain,110,2013-03-20 03:00:00
9:00 PM,42.8,39.2,87,29.78,9.0,SE,12.7,-,N/A,Rain,Light Rain,140,2013-03-20 04:00:00
10:00 PM,41.0,39.2,93,29.73,9.0,ESE,11.5,-,N/A,Rain,Light Rain,120,2013-03-20 05:00:00
11:00 PM,41,38,86,,,Calm,Calm,,,,,,2013-03-20 06:00:00
11:00 PM,41.0,39.2,93,29.69,9.0,ESE,12.7,19.6,N/A,Rain,Light Rain,110,2013-03-20 06:00:00